Stations météo

réclame
Mon MeteoGroup
St-Sauveur, France (7300): Température de l'air & dewpoint: 16.10.2017 17:00:00 - 22.10.2017 17:00:00 (CEST)St-Sauveur, France (7300): Vitesse du vent & gusts: 16.10.2017 17:00:00 - 22.10.2017 17:00:00 (CEST)St-Sauveur, France (7300): Direction du vent: 16.10.2017 17:00:00 - 22.10.2017 17:00:00 (CEST)St-Sauveur, France (7300): reduced air pressure: 16.10.2017 17:00:00 - 22.10.2017 17:00:00 (CEST)St-Sauveur, France (7300): visibility: 16.10.2017 17:00:00 - 22.10.2017 17:00:00 (CEST)St-Sauveur, France (7300): Quantités de précipitations: 16.10.2017 17:00:00 - 22.10.2017 17:00:00 (CEST)
Date & Time tt [°C] td [°C] ff [km/h] ff [knt] fx [km/h] fx [knt] dd ppp [hPa] vv [km] rr [mm]
22.10.2017 17:00:00 15,2 8,0 26 14 54 29 WNW 1025,8 18 0,0
22.10.2017 16:00:00 16,0 8,5 26 14 55 30 WNW 1026,1 - 0,0
22.10.2017 15:00:00 16,2 9,4 31 17 51 28 WNW 1025,8 - 0,0
22.10.2017 14:00:00 15,3 8,1 29 15 58 31 WNW 1025,7 18 0,0
22.10.2017 13:00:00 15,3 7,6 24 13 47 26 WNW 1025,7 - 0,0
22.10.2017 12:00:00 14,2 6,8 27 15 49 26 NW 1025,7 - 0,0
22.10.2017 11:00:00 13,1 8,8 24 13 53 29 WNW 1025,3 22 0,0
22.10.2017 10:00:00 12,7 6,5 21 11 64 35 WNW 1024,7 - 0,0
22.10.2017 09:00:00 13,5 6,1 29 16 68 37 WNW 1024,2 - 0,0
22.10.2017 08:00:00 13,5 7,5 29 16 58 31 WNW 1023,9 20 0,0
22.10.2017 07:00:00 13,1 6,9 29 15 57 31 W 1023,7 - 0,2
22.10.2017 06:00:00 13,3 7,3 30 16 55 30 WNW 1023,2 - 0,0
22.10.2017 05:00:00 13,2 6,3 31 17 59 32 W 1022,8 22 0,0
22.10.2017 04:00:00 12,9 8,2 36 19 66 36 WNW 1022,8 - 0,0
22.10.2017 03:00:00 13,6 6,9 32 17 59 32 W 1022,5 - 0,0
22.10.2017 02:00:00 13,6 7,6 31 17 63 34 W 1022,7 20 0,0
22.10.2017 01:00:00 13,5 6,4 33 18 64 35 W 1022,6 - 0,0
22.10.2017 00:00:00 13,9 7,2 32 17 64 35 W 1022,0 - 0,0
21.10.2017 23:00:00 13,8 6,4 31 17 62 33 W 1021,8 25 0,0
21.10.2017 22:00:00 14,0 6,8 34 19 66 36 W 1021,3 - 0,0
21.10.2017 21:00:00 14,2 7,5 35 19 69 37 W 1020,9 - 0,0
21.10.2017 20:00:00 13,8 7,8 35 19 64 35 W 1020,4 20 0,2
21.10.2017 19:00:00 14,3 7,6 34 18 69 37 W 1020,0 - 0,0
21.10.2017 18:00:00 15,2 8,2 37 20 70 38 W 1019,5 - 0,0
21.10.2017 17:00:00 15,3 8,3 38 21 72 39 W 1018,8 - 0,2
21.10.2017 16:00:00 15,8 9,9 32 17 69 38 W 1018,3 - 0,0
21.10.2017 15:00:00 16,4 8,6 39 21 67 36 W 1018,3 - 0,0
21.10.2017 14:00:00 16,4 8,6 40 22 68 37 W 1018,1 15 0,0
21.10.2017 13:00:00 16,5 9,2 41 22 76 41 W 1018,1 - 0,0
21.10.2017 12:00:00 16,7 9,1 40 22 69 38 W 1017,6 - 0,0
21.10.2017 11:00:00 15,3 10,3 38 20 72 39 W 1017,2 15 0,8
21.10.2017 10:00:00 16,2 9,6 43 23 77 42 W 1016,6 - 0,0
21.10.2017 09:00:00 16,2 10,3 38 21 69 37 W 1015,7 - 0,0
21.10.2017 08:00:00 16,1 11,0 32 17 70 38 W 1015,1 20 0,0
21.10.2017 07:00:00 16,2 11,1 36 20 64 34 W 1014,7 - 0,0
21.10.2017 06:00:00 16,2 12,2 34 19 61 33 WSW 1014,2 - 0,0
21.10.2017 05:00:00 15,8 12,7 37 20 69 37 W 1013,9 10 1,0
21.10.2017 04:00:00 15,7 14,6 32 17 58 31 SW 1013,3 - 0,2
21.10.2017 03:00:00 14,8 14,0 25 14 67 36 WSW 1013,2 - 2,2
21.10.2017 02:00:00 15,9 14,4 43 23 87 47 W 1013,2 25 0,4
21.10.2017 01:00:00 18,2 15,4 49 26 74 40 S 1011,3 - 0,0
21.10.2017 00:00:00 18,1 15,4 44 24 61 33 S 1011,9 - 0,0
20.10.2017 23:00:00 18,1 15,2 37 20 55 30 S 1012,4 25 0,0
20.10.2017 22:00:00 17,9 15,0 37 20 56 31 S 1012,6 - 0,0
20.10.2017 21:00:00 17,9 15,2 34 18 58 31 S 1012,9 - 0,0
20.10.2017 20:00:00 17,7 14,8 41 22 55 30 SSW 1013,4 - 0,0
20.10.2017 19:00:00 17,5 14,6 30 16 49 26 S 1013,6 - 0,0
20.10.2017 18:00:00 17,8 13,5 33 18 47 25 SSW 1014,1 - 0,0
20.10.2017 17:00:00 18,1 13,0 31 17 44 24 SSW 1014,6 25 0,0
20.10.2017 16:00:00 19,0 12,5 27 15 43 23 SSW 1015,0 - 0,0
20.10.2017 15:00:00 19,1 11,4 26 14 44 24 SSW 1015,6 - 0,0
20.10.2017 14:00:00 18,1 10,9 27 14 36 19 SSW 1015,8 20 0,0
20.10.2017 13:00:00 18,2 11,0 23 12 31 17 SSW 1015,9 - 0,0
20.10.2017 12:00:00 18,0 10,1 14 8 25 13 SW 1016,1 - 0,0
20.10.2017 11:00:00 16,7 9,9 14 7 28 15 WSW 1015,7 20 0,0
20.10.2017 10:00:00 15,1 8,8 14 8 32 17 W 1015,2 - 0,0
20.10.2017 09:00:00 14,3 8,3 14 8 29 16 W 1014,6 - 0,0
20.10.2017 08:00:00 14,4 8,1 19 10 34 18 W 1013,9 20 0,0
20.10.2017 07:00:00 13,9 7,6 16 9 37 20 W 1013,6 - 0,0
20.10.2017 06:00:00 13,7 8,1 19 10 39 21 W 1012,9 - 0,0
20.10.2017 05:00:00 14,0 8,0 23 12 40 22 W 1012,5 20 0,0
20.10.2017 04:00:00 13,8 9,0 22 12 39 21 W 1012,3 - 0,0
20.10.2017 03:00:00 14,0 9,6 22 12 44 24 WNW 1011,8 - 0,0
20.10.2017 02:00:00 14,0 10,2 23 12 41 22 W 1011,0 6 0,0
20.10.2017 01:00:00 14,2 11,7 24 13 47 26 W 1010,0 - 0,0
20.10.2017 00:00:00 14,3 12,2 21 11 45 25 W 1009,4 - 0,0
19.10.2017 23:00:00 14,5 13,5 22 12 52 28 W 1008,5 6 1,0
19.10.2017 22:00:00 15,4 14,4 33 18 81 44 WSW 1007,4 - 1,0
19.10.2017 21:00:00 15,9 14,9 50 27 85 46 SSW 1006,7 - 2,0
19.10.2017 20:00:00 16,6 13,9 55 30 82 44 SSW 1006,2 - 0,0
19.10.2017 19:00:00 17,2 13,9 51 27 69 37 SSW 1006,3 - 0,0
19.10.2017 18:00:00 17,4 13,9 47 25 65 35 SSW 1006,6 - 0,0
19.10.2017 17:00:00 17,8 13,7 42 23 57 31 SSW 1006,8 20 0,0
19.10.2017 16:00:00 18,0 13,5 38 21 53 28 SSW 1007,2 - 0,0
19.10.2017 15:00:00 18,3 13,2 27 15 46 25 SSW 1007,7 - 0,0
19.10.2017 14:00:00 19,5 13,2 24 13 44 24 SW 1008,2 20 0,0
19.10.2017 13:00:00 20,0 13,9 22 12 35 19 SW 1008,4 - 0,0
19.10.2017 12:00:00 17,8 12,3 14 8 29 16 WSW 1008,8 - 0,0
19.10.2017 11:00:00 17,6 13,5 10 5 26 14 WSW 1008,3 18 0,2
19.10.2017 10:00:00 15,9 14,1 14 8 46 25 W 1008,1 - 0,0
19.10.2017 09:00:00 15,8 14,7 16 9 27 15 S 1007,6 - 0,0
19.10.2017 08:00:00 15,2 14,6 10 5 14 8 SSW 1007,2 20 0,0
19.10.2017 07:00:00 14,1 13,1 5 3 14 8 SSW 1007,2 - 0,0
19.10.2017 06:00:00 15,2 14,4 10 6 32 17 NW 1006,9 - 0,0
19.10.2017 05:00:00 15,4 14,4 17 9 33 18 W 1007,2 20 0,0
19.10.2017 04:00:00 16,7 15,9 20 11 33 18 W 1007,3 - 0,0
19.10.2017 03:00:00 17,0 16,5 16 9 26 14 W 1007,4 - 0,0
19.10.2017 02:00:00 17,0 16,5 9 5 16 9 WSW 1007,4 12 0,0
19.10.2017 01:00:00 16,6 16,0 5 3 17 9 NNW 1007,3 - 0,0
19.10.2017 00:00:00 16,8 16,3 10 5 16 9 NE 1008,1 - 0,0
18.10.2017 23:00:00 16,5 16,0 7 4 11 6 NE 1008,5 12 0,0
18.10.2017 22:00:00 16,5 15,9 7 4 10 6 NE 1008,6 - 0,0
18.10.2017 21:00:00 16,3 15,3 7 4 10 5 E 1008,9 - 0,0
18.10.2017 20:00:00 17,4 16,4 4 2 6 4 NNE 1008,9 10 0,0
18.10.2017 19:00:00 18,0 16,7 5 3 11 6 ESE 1008,9 - 0,0
18.10.2017 18:00:00 18,5 17,0 8 4 18 10 SE 1008,8 - 0,0
18.10.2017 17:00:00 19,0 17,1 6 3 16 9 ESE 1008,9 10 0,0
18.10.2017 16:00:00 19,2 17,0 6 4 16 9 SE 1009,0 - 0,0
18.10.2017 15:00:00 19,4 17,0 9 5 22 12 S 1009,5 - 0,0
18.10.2017 14:00:00 19,5 17,1 11 6 22 12 S 1009,8 10 -
18.10.2017 13:00:00 19,5 16,9 7 4 13 7 SE 1010,0 - 0,0
18.10.2017 12:00:00 17,0 16,2 8 4 19 10 NE 1010,4 - 0,0
18.10.2017 11:00:00 16,1 15,3 13 7 19 10 NE 1010,4 10 0,0
18.10.2017 10:00:00 15,5 15,0 12 7 18 10 NNE 1010,7 - 0,0
18.10.2017 09:00:00 15,3 14,7 12 6 18 10 N 1010,7 - 0,4
18.10.2017 08:00:00 15,4 14,6 7 4 16 9 NNW 1010,9 12 2,2
18.10.2017 07:00:00 15,6 14,3 10 5 13 7 N 1011,1 - 0,0
18.10.2017 06:00:00 15,9 15,1 8 4 19 10 N 1011,3 - 0,0
18.10.2017 05:00:00 16,4 15,4 13 7 21 11 NW 1011,7 6 0,0
18.10.2017 04:00:00 17,2 16,6 6 3 11 6 W 1012,1 - 0,0
18.10.2017 03:00:00 17,3 16,5 5 3 13 7 WNW 1012,4 - 0,2
18.10.2017 02:00:00 17,7 16,9 7 4 11 6 WNW 1012,5 20 0,0
18.10.2017 01:00:00 17,7 16,9 8 4 16 9 W 1012,7 - 0,0
18.10.2017 00:00:00 17,9 17,1 8 4 26 14 SSW 1012,9 - 0,0
17.10.2017 23:00:00 18,1 16,9 16 9 28 15 SW 1013,1 - 0,0
17.10.2017 22:00:00 18,1 16,8 17 9 25 14 S 1012,9 - 0,0
17.10.2017 21:00:00 18,0 16,7 17 9 24 13 SSE 1013,1 - 0,0
17.10.2017 20:00:00 17,9 16,4 13 7 20 11 SE 1012,9 20 0,0
17.10.2017 19:00:00 18,5 16,7 11 6 24 13 SSE 1013,2 - 0,0
17.10.2017 18:00:00 19,3 16,3 11 6 24 13 SSE 1013,7 - 0,0
17.10.2017 17:00:00 19,9 16,9 14 8 30 16 SE 1013,9 15 0,0
17.10.2017 16:00:00 19,8 16,4 17 9 27 14 SE 1014,1 - 0,0
17.10.2017 15:00:00 20,7 16,7 16 9 32 17 SE 1014,7 - 0,0
17.10.2017 14:00:00 19,0 16,0 21 11 36 19 SE 1015,9 15 0,0
17.10.2017 13:00:00 17,9 15,9 20 11 39 21 SE 1016,7 - 0,0
17.10.2017 12:00:00 17,3 15,8 19 11 39 21 ESE 1017,1 - 0,0
17.10.2017 11:00:00 16,2 14,2 18 10 32 18 ESE 1018,0 15 0,0
17.10.2017 10:00:00 15,0 12,9 17 9 35 19 E 1018,4 - 0,0
17.10.2017 09:00:00 14,4 11,9 18 10 38 21 ENE 1018,9 - 0,0
17.10.2017 08:00:00 14,9 12,2 21 11 35 19 NE 1019,4 18 0,0
17.10.2017 07:00:00 14,9 12,6 19 11 33 18 ENE 1019,9 - 0,0
17.10.2017 06:00:00 14,7 11,8 16 9 32 17 ENE 1020,4 - 0,0
17.10.2017 05:00:00 14,9 12,4 15 8 24 13 ENE 1021,0 - 0,0
17.10.2017 04:00:00 15,5 12,8 11 6 28 15 NE 1021,6 - 0,0
17.10.2017 03:00:00 15,1 12,2 13 7 19 10 NE 1022,0 - 0,0
17.10.2017 02:00:00 13,5 11,4 10 5 17 9 NNE 1022,6 18 0,0
17.10.2017 01:00:00 12,8 10,5 10 5 16 8 N 1022,7 - 0,0
17.10.2017 00:00:00 13,1 10,6 12 6 17 9 NNW 1023,4 - 0,0
16.10.2017 23:00:00 13,1 11,5 10 5 12 7 NW 1023,7 18 0,0
16.10.2017 22:00:00 13,4 11,6 10 5 11 6 NW 1023,7 - 0,0
16.10.2017 21:00:00 14,2 12,1 6 4 8 5 WNW 1023,6 - 0,0
16.10.2017 20:00:00 15,4 12,0 8 4 14 8 WNW 1023,3 18 0,0
16.10.2017 19:00:00 16,6 13,5 9 5 15 8 WNW 1022,9 - 0,0
16.10.2017 18:00:00 17,0 13,7 7 4 11 6 WNW 1022,6 - 0,0
16.10.2017 17:00:00 17,5 13,6 9 5 25 13 NW 1022,1 12 0,0

tt = Température de l'air
td = dewpoint
ff = Vitesse du vent
fx = gusts
dd = Direction du vent
ppp = reduced air pressure
vv = visibility
rr = Quantités de précipitations

stations d'obs. à proximité